SCP
0 0 0 0 0 0 0 0 0 0 0 0 0 0 0 0 0 0 0 0 0 0 0 1 1 1 1 1 1 1 1 0 0 0 0 0 0 0 0 0 0 0 0 0 0 0 0 0 0
0 0 0 0 0 0 0 0 0 0 0 0 0 0 0 0 0 0 0 0 0 0 0 1 1 1 1 1 1 1 1 0 0 0 0 0 0 0 0 0 0 0 0 0 0 0 0 0 0
0 0 0 0 0 0 0 0 0 0 0 0 0 0 0 0 0 0 0 0 0 0 0 1 1 1 1 1 1 1 1 1 0 0 0 0 0 0 0 0 0 0 0 0 0 0 0 0 0
0 0 0 0 0 0 0 0 0 0 0 0 0 0 0 0 0 0 0 0 0 0 0 0 1 1 1 1 1 1 1 1 0 0 0 0 0 1 1 1 1 1 1 0 0 0 0 0 0
0 0 0 0 0 0 0 0 0 0 0 0 0 0 0 0 0 0 0 0 0 0 0 0 1 1 1 1 1 1 1 1 1 0 0 0 0 1 1 1 1 1 1 1 0 0 0 0 0
0 0 0 0 0 0 0 0 0 0 0 0 0 0 0 0 0 0 0 0 0 0 0 0 1 1 1 1 1 1 1 1 1 0 0 0 0 1 1 1 1 1 1 1 0 0 0 0 0
0 0 0 0 0 0 0 0 0 0 0 0 0 0 0 0 0 0 0 0 0 0 0 0 0 1 1 1 1 1 1 1 0 0 0 0 0 0 1 1 1 1 1 1 0 0 0 0 0
0 0 0 0 0 0 0 0 0 0 0 0 0 0 0 0 0 0 0 0 0 0 0 0 0 1 1 1 1 1 0 0 0 0 0 0 0 0 0 0 0 1 1 1 1 0 0 0 0
0 0 0 0 0 0 0 0 0 0 0 0 0 0 0 0 0 0 0 0 0 0 0 0 0 0 1 1 0 0 0 0 0 0 0 0 0 0 0 0 0 0 1 1 1 0 0 0 0
0 0 0 0 0 0 0 0 0 0 0 0 0 0 0 0 0 0 0 0 0 0 0 0 0 0 0 1 1 0 0 0 0 0 0 0 0 0 0 0 0 0 0 0 0 0 0 0 0
0 0 0 0 0 0 0 0 0 0 0 0 0 0 0 0 0 0 0 0 0 0 0 0 0 0 0 1 1 1 0 0 0 0 0 0 0 0 0 0 0 0 0 0 0 0 0 0 0
0 0 0 0 0 0 0 0 0 0 0 0 0 0 0 0 0 0 0 0 0 0 0 0 0 0 0 1 1 1 0 0 0 0 0 0 0 0 0 0 0 0 0 0 0 0 0 0 0
0 0 0 0 0 0 0 0 0 0 0 0 0 0 0 0 0 0 0 0 0 0 0 0 0 0 0 0 0 0 0 0 0 0 0 0 0 0 0 0 0 0 0 0 0 0 0 0 0
0 0 0 0 0 0 0 0 0 0 0 0 0 0 0 0 0 0 0 0 0 0 0 0 0 0 0 0 0 0 0 0 0 0 0 0 0 0 0 0 0 0 0 0 0 0 0 0 0
0 0 0 0 0 0 0 0 0 0 0 0 0 0 0 0 0 0 0 0 0 0 0 0 0 0 0 0 0 0 0 0 0 0 0 0 0 0 0 0 0 0 0 0 0 0 0 0 0
0 0 0 0 0 0 0 0 0 0 0 -0 -0 -0 0 0 0 0 0 0 0 0 0 0 0 0 0 0 0 0 0 0 0 0 0 0 0 0 0 0 0 0 0 0 0 0 0 0 0
0 0 0 0 0 0 0 0 0 0 0 -0 0 0 0 0 0 0 0 0 0 0 0 0 0 0 0 0 0 0 0 0 0 0 0 0 0 0 0 0 0 0 0 0 0 0 0 0 0
0 0 0 0 0 0 0 0 0 0 0 0 0 0 0 0 0 0 0 0 0 0 0 0 0 0 0 0 0 0 0 0 0 0 0 0 0 0 0 0 0 0 0 0 0 0 0 0 0
0 0 0 0 0 0 0 0 0 0 0 0 0 0 0 0 0 0 0 0 0 0 0 0 0 0 0 0 0 0 0 0 0 0 0 0 0 0 0 0 0 0 0 0 0 0 0 0 0
0 0 0 0 0 0 0 0 0 0 0 0 0 0 0 0 0 0 0 0 0 0 0 0 0 0 0 0 0 0 0 0 0 0 0 0 0 0 0 0 0 0 0 0 0 0 0 0 0
0 0 0 0 0 0 0 0 0 0 0 0 0 0 0 0 0 0 0 0 0 0 0 0 0 0 0 0 0 0 0 0 0 0 0 0 0 0 0 0 0 0 0 0 0 0 0 0 0
0 0 0 0 0 0 0 0 0 0 0 0 0 0 0 0 0 0 0 0 0 0 0 0 0 0 0 0 0 0 0 0 0 0 0 0 0 0 0 0 0 0 0 0 0 0 0 0 0
0 0 0 0 0 0 0 0 0 0 0 0 0 0 0 0 0 0 0 0 0 0 0 0 0 0 0 0 0 0 0 0 0 0 0 0 0 0 0 0 0 0 0 0 0 0 0 0 0
0 0 0 0 0 0 0 0 0 0 0 0 0 0 0 0 0 0 0 0 0 0 0 0 0 0 0 0 0 0 0 0 0 0 0 0 0 0 0 0 0 0 0 0 0 0 0 0 0
0 0 0 0 0 0 0 0 0 0 0 0 0 0 0 0 0 0 0 0 0 0 0 0 0 0 0 0 0 0 0 0 0 0 0 0 0 0 0 0 0 0 0 0 0 0 0 0 0
0 0 0 0 0 0 0 0 0 0 0 0 0 0 0 0 0 0 0 0 0 0 0 0 0 0 0 0 0 0 0 0 0 0 0 0 0 0 0 0 0 0 0 0 0 0 0 0 0
0 0 0 0 0 0 0 0 0 0 0 0 0 -0 -0 0 0 0 0 0 0 0 0 0 0 0 0 0 0 0 0 0 0 0 0 0 0 0 0 0 0 0 0 0 0 0 0 0 0
0 0 0 0 0 0 0 0 0 0 0 0 0 0 0 0 0 0 0 0 0 0 0 0 0 0 0 0 0 0 0 0 0 0 0 0 0 0 0 0 0 0 0 0 0 0 0 0 0
0 0 0 0 0 0 0 0 0 0 0 0 0 0 0 0 0 0 0 0 0 0 0 0 0 0 0 0 0 0 0 0 0 0 0 0 0 0 0 0 0 0 0 0 0 0 0 0 0
0 0 0 0 0 0 0 0 0 0 0 0 0 0 0 0 0 0 0 0 0 0 0 0 0 0 0 0 0 0 0 0 0 0 0 0 0 0 0 0 0 0 0 0 0 0 0 0 0
Wind_Speed
2 2 3 3 5 7 9 6 4 3 3 1 3 4 4 4 3 3 5 6 6 2 3 7 5 6 7 8 9 9 10 10 11 12 13 13 13 13 12 12 12 12 12 11 12 12 12 13 12
2 2 4 4 7 9 7 6 7 5 1 2 4 5 5 3 2 4 5 7 5 1 3 6 5 5 6 7 8 9 10 10 11 12 12 13 13 13 13 12 12 12 11 11 12 12 13 13 12
2 3 4 5 8 8 4 3 3 3 3 4 3 3 4 2 2 3 7 6 4 1 2 5 4 5 6 7 8 8 9 10 11 11 12 13 13 13 13 12 12 12 11 11 12 12 13 12 12
3 4 4 7 11 8 5 2 1 2 2 2 4 4 1 2 4 6 7 5 3 1 2 4 4 4 5 6 7 7 8 9 10 11 12 12 12 12 13 12 12 11 11 11 12 12 13 12 13
3 4 7 9 11 8 6 5 4 5 4 2 4 5 3 2 4 6 6 5 4 2 1 3 4 4 5 5 6 7 7 8 10 11 12 12 12 12 12 12 12 12 12 12 12 12 12 12 12
4 5 8 10 11 8 7 7 7 9 8 7 7 8 5 1 5 7 7 5 4 3 2 3 5 4 5 6 6 6 7 8 9 10 11 12 12 12 12 12 12 12 12 12 12 13 13 12 13
5 5 8 9 8 8 5 4 7 8 9 7 6 8 6 2 6 8 7 6 5 3 3 3 4 5 6 6 6 6 6 7 8 9 10 10 11 12 12 12 12 12 13 13 13 13 13 13 13
3 4 7 8 9 7 3 4 5 7 8 5 6 8 6 5 8 9 8 7 5 4 4 4 4 5 5 7 7 6 6 6 7 8 8 9 10 11 12 12 12 13 13 13 13 13 13 13 12
4 7 9 7 7 4 2 5 5 7 9 9 8 10 10 10 10 10 8 7 6 4 4 5 5 5 5 6 6 7 7 7 7 8 9 9 9 10 10 11 11 13 13 13 13 13 13 12 11
6 8 8 4 5 5 6 8 9 9 12 13 12 11 10 10 10 10 10 9 7 6 6 5 6 6 5 5 5 6 6 6 7 7 8 8 8 7 8 9 10 12 12 13 13 12 12 10 9
6 8 5 6 6 7 9 11 10 12 14 13 13 13 11 11 11 11 11 10 9 8 7 6 7 6 6 4 4 4 4 5 6 7 8 6 6 5 6 6 7 9 11 10 11 11 9 9 7
6 7 7 7 6 9 11 11 11 14 15 13 13 13 13 13 12 11 11 11 9 9 9 7 7 7 7 6 4 5 4 4 4 6 7 6 4 5 6 6 7 7 7 8 9 7 9 9 10
9 7 7 9 11 12 14 16 16 17 15 13 13 13 13 13 12 11 10 10 10 9 9 8 7 7 7 6 5 5 5 5 5 5 6 7 5 6 6 6 6 8 7 8 8 9 10 10 10
4 7 10 11 12 11 13 16 14 15 11 11 12 12 12 12 12 11 10 10 10 9 9 8 7 7 7 6 5 5 5 5 5 5 7 7 6 6 6 7 7 7 8 8 9 10 9 8 8
5 8 10 9 9 6 9 14 13 11 9 12 13 12 12 12 11 11 11 10 10 9 9 7 6 6 8 7 7 5 5 5 5 6 7 8 7 7 7 7 7 7 8 9 8 10 8 8 8
5 6 6 3 5 5 7 13 7 6 10 14 13 12 11 10 10 10 9 9 9 8 8 7 6 6 7 7 6 5 5 5 5 6 6 9 9 9 7 7 7 8 7 7 7 8 8 8 9
5 6 7 6 4 5 8 15 11 9 13 15 13 11 10 9 9 8 8 8 8 8 7 7 6 6 6 7 6 6 5 5 5 5 6 7 8 9 8 7 7 8 7 8 8 8 8 9 9
4 7 8 9 4 8 13 18 18 15 14 14 13 11 9 8 8 7 7 7 7 7 7 6 6 6 6 6 5 4 5 5 5 5 6 8 7 9 8 7 8 8 7 8 9 10 9 8 8
6 9 12 11 7 10 15 20 19 16 13 12 10 9 8 7 7 6 6 6 6 6 6 6 6 6 5 5 5 5 5 5 5 6 8 9 9 9 9 7 8 8 8 9 11 9 11 9 7
9 11 12 10 4 9 14 20 17 12 10 8 8 7 6 6 5 5 5 5 6 6 6 7 6 6 6 6 5 5 5 5 5 5 8 9 10 10 8 10 8 9 8 10 11 10 9 7 8
10 11 10 10 11 7 10 13 7 4 5 6 6 6 6 5 6 5 5 5 6 6 6 6 7 7 7 7 4 4 4 4 5 6 7 9 10 10 10 11 9 9 10 9 11 12 12 9 9
8 6 8 9 9 5 4 10 7 4 6 5 5 4 4 5 5 5 5 6 6 6 5 7 7 6 5 6 6 7 6 6 7 6 6 8 10 10 11 11 11 10 9 11 12 13 11 12 10
5 3 6 8 8 8 6 8 8 3 6 6 4 4 4 4 4 5 5 5 6 6 5 6 7 6 5 6 7 7 7 7 6 6 8 8 8 10 10 11 11 11 10 11 13 13 13 11 11
3 2 4 4 4 7 5 8 7 2 4 4 3 3 4 4 4 5 5 5 5 6 5 5 6 6 6 7 8 8 8 8 7 8 7 7 6 7 10 10 10 11 10 11 11 12 14 12 13
4 3 3 3 4 5 2 7 8 3 4 4 4 4 4 5 6 6 6 6 6 6 6 5 6 6 6 7 8 9 9 9 9 9 8 7 6 6 9 9 10 10 10 11 11 12 13 14 14
5 4 4 5 5 4 4 9 5 3 4 4 4 5 5 6 6 7 7 7 7 7 7 5 6 6 6 7 8 8 9 7 6 8 8 8 7 7 9 10 10 11 12 11 11 10 12 12 13
5 6 2 4 5 7 8 7 7 4 5 3 4 5 6 7 7 8 8 8 8 8 7 6 6 6 7 7 8 8 8 8 7 8 8 7 7 7 9 9 10 11 11 12 11 9 12 12 12
4 3 4 4 5 8 8 8 6 4 4 4 6 7 7 8 8 8 8 9 9 8 7 7 7 7 7 7 6 6 7 7 7 7 8 8 8 8 9 9 9 9 10 11 11 10 11 13 12
7 6 6 5 5 7 8 6 1 4 4 5 7 8 8 10 9 9 9 9 9 9 7 6 6 6 7 6 6 6 7 6 7 7 8 8 8 8 9 9 9 9 10 10 11 11 11 13 12
8 9 9 7 7 7 9 9 1 3 4 6 8 9 10 10 10 10 10 10 10 9 8 7 6 6 6 6 6 7 6 6 7 8 8 8 8 8 9 8 9 9 9 10 11 11 11 12 13
Wind_Direction
297 231 213 218 223 229 236 221 221 191 205 254 273 259 265 271 293 32 33 1 347 326 180 168 177 174 173 172 172 170 170 169 169 170 169 167 166 164 162 162 159 154 149 148 146 141 138 134 129
272 206 206 220 236 228 223 216 215 220 252 291 253 248 248 249 332 11 14 355 340 341 179 172 163 175 176 175 171 171 173 174 173 173 172 170 170 169 167 166 161 156 151 147 142 139 137 135 131
219 231 221 220 230 236 216 169 215 231 267 268 257 256 272 299 6 2 5 347 341 26 170 158 154 177 180 179 178 176 178 178 178 176 176 175 173 173 171 168 163 158 153 148 144 140 139 138 134
202 196 222 236 231 235 248 162 139 237 218 266 275 253 218 28 357 355 355 352 348 18 163 152 161 185 183 181 183 182 184 184 183 181 180 179 177 177 174 169 165 161 156 153 149 145 144 143 141
218 216 222 232 238 236 241 258 266 268 268 274 285 274 259 93 6 351 351 349 342 344 235 173 173 196 193 192 190 191 189 189 189 188 184 183 182 179 174 172 170 166 163 160 157 153 150 149 148
194 219 231 236 234 235 239 250 258 265 269 277 282 276 263 70 358 352 347 339 331 319 263 210 186 204 206 205 202 197 194 193 192 193 192 189 186 182 179 175 172 170 169 167 165 162 158 155 155
216 222 243 252 250 244 241 249 255 267 267 275 287 275 255 285 349 339 336 331 325 311 269 242 212 208 209 213 212 208 199 195 196 197 196 192 189 186 184 180 177 175 174 173 170 168 164 161 160
237 236 240 241 246 246 243 251 262 277 278 292 276 266 268 330 334 325 318 315 314 303 275 252 232 225 221 214 205 206 204 199 198 199 194 191 191 190 187 185 182 179 178 177 174 171 168 166 164
217 235 238 237 243 243 247 267 269 274 269 260 255 273 296 310 309 306 304 300 298 291 275 262 248 234 232 228 212 207 204 199 195 198 187 189 201 198 193 193 182 183 181 180 177 173 170 166 164
210 234 244 252 257 269 277 283 288 272 263 262 261 265 278 287 291 290 289 290 286 284 279 264 256 244 236 229 221 217 215 207 209 207 198 206 208 203 199 182 181 182 182 181 179 172 170 178 174
217 243 258 253 263 275 280 281 276 271 267 268 276 283 289 288 284 281 280 278 279 277 275 268 258 248 239 231 226 222 218 214 216 212 209 212 210 200 196 188 183 188 186 186 179 179 187 191 184
233 246 258 264 267 270 274 277 271 258 266 283 283 284 284 281 278 275 276 277 275 274 270 268 264 248 240 236 229 226 221 216 215 214 213 211 209 206 200 200 197 194 194 191 189 193 190 194 192
236 253 259 268 268 269 269 265 270 266 269 274 274 276 274 273 273 272 272 274 273 270 270 264 265 257 241 233 231 228 225 223 217 214 215 214 213 211 205 206 203 200 197 194 195 197 193 195 196
254 263 272 276 271 263 266 267 261 264 266 268 271 274 274 271 270 272 270 271 272 269 268 266 258 261 245 231 229 230 225 223 224 217 218 217 216 213 210 211 209 205 201 199 199 200 196 197 198
264 273 272 258 257 254 274 265 243 257 266 272 274 275 275 273 271 271 272 270 270 268 265 264 257 258 251 233 230 231 224 225 223 219 219 218 218 215 214 213 209 208 204 203 202 201 199 198 198
243 251 258 233 251 249 262 269 258 265 277 280 277 276 275 274 271 271 273 272 269 266 262 260 256 251 255 239 229 230 225 224 225 220 219 219 220 219 217 215 212 208 204 201 200 199 198 199 199
220 252 269 275 238 252 255 273 278 284 284 280 279 277 276 276 276 275 273 270 269 268 262 257 256 250 256 244 228 230 230 224 226 223 220 219 221 221 219 217 214 208 206 203 201 201 202 202 202
251 268 273 276 267 268 266 272 282 285 283 280 280 276 274 275 279 283 279 270 267 268 263 258 254 251 254 244 226 225 229 228 226 225 222 220 220 221 222 218 215 208 208 206 204 203 204 207 203
273 269 277 282 286 278 272 278 284 287 279 275 276 277 276 278 280 284 281 272 266 262 263 260 257 254 251 239 225 223 226 229 230 228 225 221 222 222 222 219 214 211 212 211 209 206 203 207 197
254 266 276 286 277 282 285 283 282 279 270 276 283 281 281 285 282 283 282 276 268 261 262 264 259 257 250 239 231 230 235 236 236 234 231 227 224 223 221 219 217 214 214 214 211 208 206 203 196
249 253 273 289 305 273 292 282 260 272 267 275 283 284 285 288 291 290 282 278 273 266 262 264 260 257 247 235 228 229 233 240 237 234 231 228 228 226 225 221 219 218 216 215 213 208 210 206 203
259 250 265 280 292 291 308 294 281 274 280 284 282 282 284 290 289 291 289 284 283 278 266 260 263 254 249 234 225 226 229 239 243 238 236 233 231 230 227 225 222 221 222 218 215 214 213 209 207
258 288 268 271 274 281 247 257 278 267 274 283 291 300 308 306 304 298 294 291 290 289 271 262 261 255 252 242 231 231 238 246 250 242 240 240 235 232 230 228 225 223 224 223 218 215 215 212 213
232 260 258 239 245 257 236 240 277 246 283 305 309 319 327 331 320 312 306 303 297 297 284 265 260 257 253 248 239 236 241 247 250 245 240 239 238 234 231 230 229 227 226 224 223 218 218 216 216
210 250 268 245 229 250 174 248 264 298 301 301 310 319 331 337 323 319 319 312 304 300 296 276 263 265 263 254 246 241 240 243 246 246 239 241 240 237 232 230 231 230 228 225 224 224 221 219 217
206 223 249 275 278 289 239 250 271 310 309 300 305 316 322 325 328 326 320 319 314 307 298 281 268 268 270 265 255 246 242 240 243 247 244 242 242 240 238 234 235 235 232 228 224 227 223 220 220
193 214 257 272 284 274 255 260 277 270 279 290 310 319 316 320 326 326 322 319 315 306 298 285 277 274 276 272 265 253 249 244 247 252 250 247 246 244 240 238 240 238 235 231 226 227 227 222 222
249 193 189 223 263 268 266 260 262 251 267 299 315 317 314 319 322 325 324 324 314 310 298 285 284 279 278 274 266 263 257 253 251 253 256 254 255 249 240 239 241 241 238 235 229 229 230 225 223
184 191 213 225 252 269 280 272 256 259 277 297 306 311 313 317 320 322 319 319 320 315 306 294 287 285 285 282 273 265 263 261 259 256 256 256 257 252 240 239 240 240 238 236 232 230 230 227 225
223 216 205 223 233 240 269 275 240 255 289 302 307 312 312 312 315 317 318 319 320 320 314 300 286 283 283 286 276 266 263 262 261 258 257 257 255 252 246 241 242 241 238 236 234 231 231 228 225